Location: Bambrugge
(50.9212°N, 3.9299°E)
Time: 19:37:14
(UTC+00:00)

SL-8 R/B - Pass Details

Date: 23 May 2024
Orbit: 652 x 662 km, 48.4° (Epoch: 14 June)

Event Time Altitude Azimuth Distance (km) Brightness Sun altitude
Rises 00:57:23 0° 279° (W) 2,976 7.0 -16.5°
Reaches altitude 10° 00:59:49 10° 272° (W) 2,065 6.1 -16.4°
Maximum altitude 01:04:16 40° 203° (SSW) 964 4.0 -16.1°
Drops below altitude 10° 01:08:43 10° 134° (SE) 2,065 6.0 -15.9°
Sets 01:11:09 0° 127° (SE) 2,976 6.9 -15.7°
